Regional Weather Roundup
Issued by NWS

Home | Current Version | Previous Version | Graphics & Text | Print | Product List | Glossary On
Versions: 1 2 3 4 5 6 7 8 9 10 11 12 13 14 15 16 17 18 19 20 21 22 23 24
000
ASUS45 KTFX 191610
RWRMT
MONTANA REGIONAL WEATHER ROUNDUP
NATIONAL WEATHER SERVICE GREAT FALLS MT
1000 AM MDT TUE SEP 19 2017

NOTE: "FAIR" INDICATES FEW OR NO CLOUDS BELOW 12000 FEET WITH NO
SIGNIFICANT WEATHER AND/OR OBSTRUCTIONS TO VISIBILITY.

MTZ001>007-043-191700-
WEST OF THE DIVIDE

CITY           SKY/WX    TMP DP  RH WIND       PRES   REMARKS
KALISPELL      PTSUNNY   45  42  89 CALM      29.71S
MISSOULA       MOSUNNY   43  42  97 CALM      29.74F
BUTTE          CLOUDY    41  33  73 CALM      29.75R
MULLAN PASS    SNOW      31  30  96 VRB3      29.70R VSB 1/4
ANACONDA         N/A     43  30  61 S6        29.74S
DEER LODGE       N/A     39  36  87 CALM      29.75F
HAMILTON         N/A     46  36  66 CALM      29.74F
LIBBY            N/A     43  43 100 CALM      29.71S
PLAINS           N/A     41  37  85 CALM      29.76S
$$

MTZ008-052>055-191700-
SOUTHWEST MONTANA

CITY           SKY/WX    TMP DP  RH WIND       PRES   REMARKS
BOZEMAN        PTSUNNY   42  38  85 SE7       29.74S
DILLON         SUNNY     44  34  67 SW14      29.74R
W YELLOWSTONE  CLOUDY    36  34  93 SW8       29.77R WCI  29
ENNIS          CLOUDY    43  36  75 S7        29.79S
THREE FORKS      N/A     47  40  76 SE1       29.75
TWIN BRIDGES     N/A     43  34  70 CALM      29.77S
$$

MTZ009-010-012-014-046-048-049-054-191700-
EAST SLOPES AND CENTRAL MONTANA

CITY           SKY/WX    TMP DP  RH WIND       PRES   REMARKS
CUT BANK       SUNNY     50  30  46 W23G31    29.60F
GREAT FALLS    CLOUDY    48  33  56 SW16      29.64S
MALMSTROM AFB  PTSUNNY   49  34  56 SW18G26   29.65S
HELENA         CLOUDY    48  34  58 W8        29.70S
BOWMANS CRNR     N/A     47  30  52 SW13      29.64S
CHOTEAU          N/A     52  28  40 W10       29.64S
FAIRFIELD        N/A     48  29  48 SW14      29.63S
POWER            N/A     46  34  63 SW10      29.63S
RAYNESFORD     PTSUNNY   48  29  47 W17       29.65S
ULM            PTSUNNY   48  32  54 W17       29.66R
$$

MTZ011-013-016-021-045-047-050-051-191700-
NORTH CENTRAL MONTANA

CITY           SKY/WX    TMP DP  RH WIND       PRES   REMARKS
HAVRE          CLOUDY    47  37  68 W10       29.61S
LEWISTOWN      CLOUDY    47  33  58 W10       29.65R
N BAR RANCH      N/A     45  34  65 VRB5      29.67S
CHINOOK          N/A     46  37  71 W9        29.60S
DENTON           N/A     48  34  57 W15G22    29.60R
GEYSER           N/A     48  30  50 W18       29.63S
GRASS RANGE    PTSUNNY   48  33  54 W9        29.61R
JUDITH GAP     PTSUNNY   46  29  51 NW18G26   29.65
WINIFRED       PTSUNNY   47  36  67 W8        29.62R
$$

MTZ017>020-022>027-061-062-191700-
NORTHEAST MONTANA

CITY           SKY/WX    TMP DP  RH WIND       PRES   REMARKS
GLASGOW        CLOUDY    53  45  74 W15       29.53R
JORDAN           N/A     53  40  61 NW17      29.57S
SIDNEY         CLOUDY    56  50  80 W21       29.48R
WOLF POINT     CLOUDY    53  50  89 W14       29.50S
MALTA          MOSUNNY   52  39  62 W24       29.55F
PLENTYWOOD       N/A     54  52  94 CALM      29.44R
POPLAR           N/A     54  52  94 W8        29.49R
SCOBEY           N/A     51  45  80 W8        29.50
$$

MTZ028>42-056>058-191700-
SOUTHCENTRAL AND SOUTHEAST MONTANA

CITY           SKY/WX    TMP DP  RH WIND       PRES   REMARKS
BAKER          CLOUDY    56  47  71 W20G28    29.55R
BILLINGS       CLOUDY    47  43  86 SW12      29.67R
LIVINGSTON     LGT RAIN  40  37  89 SW9       29.72F
MILES CITY     CLOUDY    54  41  61 W12       29.58R
BIG TIMBER     SUNNY     41  36  81 W22G31    29.70F
EKALAKA          N/A     53  47  80 W12       29.60
HARLOWTON        N/A     46  33  61 MISG      29.66R
LAUREL           N/A     46  43  87 W8        29.69R
$$

REGIONAL REPORTS...DAKOTAS

CITY           SKY/WX    TMP DP  RH WIND       PRES   REMARKS
WILLISTON      LGT RAIN  57  53  86 SW8       29.45R
MINOT          CLOUDY    64  59  83 SE22G30   29.46R
DICKINSON      CLOUDY    61  49  64 SW9       29.47R
BEACH            N/A     55  52  88 W15G23    29.55R
CROSBY           N/A     57  55  94 SE6       29.41R
TIOGA          PTSUNNY   61  59  94 S15       29.45R
WATFORD CITY   DRIZZLE   57  54  88 SW9       29.45R
BISMARCK       LGT RAIN  65  44  46 S20       29.51S
GRAND FORKS    CLOUDY    62  62 100 SE17      29.70F FOG
FARGO          CLOUDY    68  63  84 SE16G29   29.70F
BUFFALO SD       N/A     61  46  57 W7        29.48R
RAPID CITY     SUNNY     63  45  51 N8        29.57R
$$

REGIONAL REPORTS...WYOMING/IDAHO/WASHINGTON

CITY           SKY/WX    TMP DP  RH WIND       PRES   REMARKS
GILLETTE       CLOUDY    60  45  57 S13       29.59R
SHERIDAN       CLOUDY    47  43  86 NW15      29.67R
BUFFALO WY     PTSUNNY   49  41  74 N17G26    29.64F
CODY           CLOUDY    43  38  82 N13       29.67S
YELLOWSTONE LA   N/A     30  30 100 VRB5      29.78R
IDAHO FALLS    PTSUNNY   44  37  76 SW21G29   29.84R
SALMON         CLOUDY    44  39  82 NW5       29.79S
BOISE          LGT RAIN  50  40  68 SW8       29.90R
SPOKANE        CLOUDY    46  44  93 SW10      29.72R
$$

REGIONAL REPORTS...ALBERTA

CITY           SKY/WX    TMP DP  RH WIND       PRES   REMARKS
EDMONTON       LGT RAIN  37  37 100 W14G21    29.41R WCI  29
CALGARY        MOSUNNY   43  28  56 SW8       29.56S
LETHBRIDGE     MOSUNNY   48  30  49 SW13      29.58F
MEDICINE HAT   MOSUNNY   45  39  81 W12       29.58R
$$

REGIONAL REPORTS...SASKATCHEWAN

CITY           SKY/WX    TMP DP  RH WIND       PRES   REMARKS
SWIFT CURRENT  MOSUNNY   46  39  76 W15G21    29.49R
REGINA         LGT RAIN  52  50  93 E9        29.42F FOG
SASKATOON      LGT RAIN  54  52  94 SE14      29.46S FOG
$$




USA.gov is the U.S. government's official web portal to all federal, state and local government web resources and services.